{"data":{"norad_id":59318,"epoch":"2026-09-21T05:49:27.219360Z","epoch_age_seconds":98167,"freshness":"FRESH","line1":"1 59318U 24056Y   26264.24267615  .00001068  00000+0  48341-4 0  9994","line2":"2 59318  43.0034 206.1535 0001158 273.2992  86.7727 15.27578288141065","mean_motion":15.27578288,"eccentricity":0.0001158,"inclination_deg":43.0034,"raan_deg":206.1535,"arg_perigee_deg":273.2992,"mean_anomaly_deg":86.7727,"bstar":4.8341e-5,"rev_number":14106,"period_min":94.266854361051,"perigee_km":482.25969644478,"apogee_km":483.84874833188,"semimajor_km":6861.1912223883,"source":"CELESTRAK","updated_at":"2026-09-22T09:00:48.897476Z"}}